| time (UTC) | temp F | wind direction | speed MPH | gust MPH | rain 1hr in | rain 24hr in | rain mn in | humidity % | barometer mb |
| 20260508204544 | 69 | 360 | 7.0 | 14.0 | 0.00 | 0.00 | 0.00 | 40 | 1010.9 |
| 20260508203050 | 68 | 360 | 8.0 | 14.0 | 0.00 | 0.00 | 0.00 | 41 | 1011.0 |
| 20260508201550 | 70 | 360 | 7.0 | 14.0 | 0.00 | 0.00 | 0.00 | 39 | 1011.4 |
| 20260508200058 | 70 | 265 | 9.0 | 16.0 | 0.00 | 0.00 | 0.00 | 38 | 1011.5 |
| 20260508194549 | 70 | 360 | 5.0 | 15.0 | 0.00 | 0.00 | 0.00 | 43 | 1011.8 |
| 20260508193059 | 69 | 360 | 11.0 | 18.0 | 0.00 | 0.00 | 0.00 | 36 | 1011.5 |
| 20260508191545 | 69 | 360 | 10.0 | 19.0 | 0.00 | 0.00 | 0.00 | 36 | 1012.0 |
| 20260508184618 | 69 | 280 | 4.0 | 13.0 | 0.00 | 0.00 | 0.00 | 40 | 1012.3 |
| 20260508183056 | 69 | 360 | 6.0 | 17.0 | 0.00 | 0.00 | 0.00 | 41 | 1012.8 |
| 20260508181601 | 68 | 163 | 7.0 | 15.0 | 0.00 | 0.00 | 0.00 | 40 | 1013.1 |
| 20260508180056 | 68 | 360 | 7.0 | 15.0 | 0.00 | 0.00 | 0.00 | 42 | 1013.4 |
| 20260508174556 | 67 | 261 | 9.0 | 18.0 | 0.00 | 0.00 | 0.00 | 40 | 1013.5 |
| 20260508173057 | 67 | 360 | 11.0 | 23.0 | 0.00 | 0.00 | 0.00 | 44 | 1014.0 |
| 20260508171550 | 66 | 278 | 7.0 | 15.0 | 0.00 | 0.00 | 0.00 | 43 | 1014.1 |
| 20260508170051 | 67 | 360 | 7.0 | 13.0 | 0.00 | 0.00 | 0.00 | 48 | 1014.5 |
| 20260508164601 | 66 | 360 | 8.0 | 14.0 | 0.00 | 0.00 | 0.00 | 46 | 1014.7 |
| 20260508163046 | 65 | 290 | 9.0 | 18.0 | 0.00 | 0.00 | 0.00 | 44 | 1015.1 |
| 20260508161551 | 65 | 360 | 7.0 | 18.0 | 0.00 | 0.00 | 0.00 | 48 | 1015.1 |
| 20260508160051 | 65 | 360 | 8.0 | 18.0 | 0.00 | 0.00 | 0.00 | 52 | 1015.4 |
| 20260508154549 | 64 | 360 | 7.0 | 15.0 | 0.00 | 0.00 | 0.00 | 48 | 1015.6 |
| 20260508153050 | 64 | 360 | 9.0 | 16.0 | 0.00 | 0.00 | 0.00 | 47 | 1015.7 |
| 20260508151559 | 63 | 360 | 7.0 | 17.0 | 0.00 | 0.00 | 0.00 | 50 | 1015.8 |
| 20260508144619 | 62 | 360 | 6.0 | 14.0 | 0.00 | 0.00 | 0.00 | 48 | 1016.1 |
| 20260508143112 | 61 | 360 | 7.0 | 13.0 | 0.00 | 0.00 | 0.00 | 48 | 1015.9 |
| 20260508141602 | 60 | 274 | 6.0 | 13.0 | 0.00 | 0.00 | 0.00 | 52 | 1016.1 |
| 20260508140054 | 59 | 360 | 9.0 | 17.0 | 0.00 | 0.00 | 0.00 | 53 | 1016.3 |
| 20260508134600 | 58 | 360 | 6.0 | 14.0 | 0.00 | 0.00 | 0.00 | 54 | 1016.3 |
| 20260508133115 | 56 | 360 | 8.0 | 15.0 | 0.00 | 0.00 | 0.00 | 53 | 1016.3 |
| 20260508131554 | 56 | 360 | 8.0 | 13.0 | 0.00 | 0.00 | 0.00 | 54 | 1016.2 |
| 20260508130052 | 55 | 360 | 7.0 | 13.0 | 0.00 | 0.00 | 0.00 | 54 | 1016.2 |
| 20260508124550 | 53 | 360 | 8.0 | 13.0 | 0.00 | 0.00 | 0.00 | 55 | 1016.1 |
| 20260508123100 | 52 | 360 | 7.0 | 12.0 | 0.00 | 0.00 | 0.00 | 59 | 1016.1 |
| 20260508121550 | 50 | 360 | 6.0 | 9.0 | 0.00 | 0.00 | 0.00 | 61 | 1016.1 |
| 20260508120053 | 49 | 360 | 6.0 | 10.0 | 0.00 | 0.00 | 0.00 | 63 | 1016.0 |
| 20260508114551 | 47 | 360 | 4.0 | 8.0 | 0.00 | 0.00 | 0.00 | 66 | 1015.9 |
| 20260508113108 | 46 | 360 | 4.0 | 6.0 | 0.00 | 0.00 | 0.00 | 67 | 1015.7 |
| 20260508111551 | 45 | 360 | 3.0 | 5.0 | 0.00 | 0.00 | 0.00 | 70 | 1015.6 |
| 20260508110055 | 44 | 360 | 2.0 | 4.0 | 0.00 | 0.00 | 0.00 | 69 | 1015.5 |
| 20260508104543 | 45 | 360 | 4.0 | 8.0 | 0.00 | 0.00 | 0.00 | 68 | 1015.4 |
| 20260508103059 | 46 | 217 | 3.0 | 7.0 | 0.00 | 0.00 | 0.00 | 66 | 1015.5 |
| 20260508101600 | 46 | 360 | 3.0 | 6.0 | 0.00 | 0.00 | 0.00 | 66 | 1015.3 |
| 20260508100053 | 45 | 360 | 3.0 | 5.0 | 0.00 | 0.00 | 0.00 | 67 | 1015.3 |
| 20260508094546 | 45 | 360 | 3.0 | 5.0 | 0.00 | 0.00 | 0.00 | 68 | 1015.3 |
| 20260508093049 | 46 | 360 | 3.0 | 5.0 | 0.00 | 0.00 | 0.00 | 66 | 1015.2 |
| 20260508091558 | 46 | 360 | 2.0 | 5.0 | 0.00 | 0.00 | 0.00 | 65 | 1015.2 |
| 20260508090108 | 46 | 360 | 3.0 | 4.0 | 0.00 | 0.00 | 0.00 | 64 | 1015.1 |
| 20260508084553 | 46 | 360 | 2.0 | 6.0 | 0.00 | 0.00 | 0.00 | 64 | 1015.1 |
| 20260508083050 | 46 | 360 | 3.0 | 5.0 | 0.00 | 0.00 | 0.00 | 65 | 1015.2 |
| 20260508081549 | 45 | 360 | 2.0 | 3.0 | 0.00 | 0.00 | 0.00 | 66 | 1015.0 |
| 20260508080048 | 45 | 360 | 3.0 | 5.0 | 0.00 | 0.00 | 0.00 | 67 | 1014.9 |
| 20260508074548 | 46 | 360 | 3.0 | 7.0 | 0.00 | 0.00 | 0.00 | 66 | 1015.0 |
| 20260508073051 | 46 | 360 | 4.0 | 6.0 | 0.00 | 0.00 | 0.00 | 64 | 1015.0 |
| 20260508071600 | 46 | 360 | 2.0 | 5.0 | 0.00 | 0.00 | 0.00 | 63 | 1015.2 |
| 20260508070056 | 47 | 360 | 2.0 | 4.0 | 0.00 | 0.00 | 0.00 | 62 | 1015.5 |
| 20260508064549 | 47 | 360 | 3.0 | 5.0 | 0.00 | 0.00 | 0.00 | 61 | 1015.6 |
| 20260508063049 | 47 | 360 | 3.0 | 6.0 | 0.00 | 0.00 | 0.00 | 61 | 1015.8 |
| 20260508061550 | 47 | 360 | 2.0 | 5.0 | 0.00 | 0.00 | 0.00 | 61 | 1015.8 |
| 20260508060053 | 48 | 360 | 3.0 | 6.0 | 0.00 | 0.00 | 0.00 | 60 | 1015.9 |
| 20260508054548 | 47 | 360 | 4.0 | 6.0 | 0.00 | 0.00 | 0.00 | 62 | 1015.9 |
| 20260508053113 | 46 | 261 | 3.0 | 4.0 | 0.00 | 0.00 | 0.00 | 64 | 1015.9 |
| 20260508051549 | 47 | 360 | 2.0 | 3.0 | 0.00 | 0.00 | 0.00 | 63 | 1015.8 |
| 20260508050049 | 47 | 360 | 1.0 | 4.0 | 0.00 | 0.00 | 0.00 | 63 | 1015.8 |
| 20260508044554 | 47 | 360 | 3.0 | 5.0 | 0.00 | 0.00 | 0.00 | 63 | 1015.8 |
| 20260508043048 | 47 | 360 | 2.0 | 3.0 | 0.00 | 0.00 | 0.00 | 63 | 1015.8 |
| 20260508041611 | 47 | 360 | 1.0 | 2.0 | 0.00 | 0.00 | 0.00 | 63 | 1015.9 |
| 20260508040104 | 47 | 360 | 1.0 | 3.0 | 0.00 | 0.00 | 0.00 | 64 | 1015.8 |
| 20260508034549 | 46 | 360 | 1.0 | 2.0 | 0.00 | 0.00 | 0.00 | 66 | 1015.8 |
| 20260508033050 | 46 | 360 | 2.0 | 3.0 | 0.00 | 0.00 | 0.00 | 69 | 1015.9 |
| 20260508031549 | 45 | 360 | 1.0 | 2.0 | 0.00 | 0.00 | 0.00 | 72 | 1015.9 |
| 20260508030047 | 45 | 0 | 0.0 | 0.0 | 0.00 | 0.00 | 0.00 | 73 | 1016.0 |
| 20260508024603 | 45 | 0 | 0.0 | 0.0 | 0.00 | 0.00 | 0.00 | 72 | 1015.9 |
| 20260508023051 | 45 | 0 | 0.0 | 0.0 | 0.00 | 0.00 | 0.00 | 71 | 1015.8 |
| 20260508021547 | 46 | 0 | 0.0 | 0.0 | 0.00 | 0.00 | 0.00 | 70 | 1015.8 |
| 20260508020049 | 47 | 0 | 0.0 | 0.0 | 0.00 | 0.00 | 0.00 | 67 | 1015.9 |
| 20260508014547 | 48 | 0 | 0.0 | 0.0 | 0.00 | 0.00 | 0.00 | 63 | 1015.7 |
| 20260508013051 | 49 | 0 | 0.0 | 0.0 | 0.00 | 0.00 | 0.00 | 60 | 1015.5 |
| 20260508011555 | 51 | 0 | 0.0 | 0.0 | 0.00 | 0.00 | 0.00 | 55 | 1015.5 |
| 20260508010056 | 53 | 0 | 0.0 | 0.0 | 0.00 | 0.00 | 0.00 | 49 | 1015.4 |
| 20260508004555 | 54 | 0 | 0.0 | 0.0 | 0.00 | 0.00 | 0.00 | 47 | 1015.3 |
| 20260508003105 | 56 | 0 | 0.0 | 0.0 | 0.00 | 0.00 | 0.00 | 44 | 1015.2 |
| 20260508001552 | 57 | 0 | 1.0 | 3.0 | 0.00 | 0.00 | 0.00 | 44 | 1015.0 |
| 20260508000048 | 58 | 304 | 1.0 | 4.0 | 0.00 | 0.00 | 0.00 | 43 | 1015.0 |
| 20260507234545 | 58 | 307 | 3.0 | 6.0 | 0.00 | 0.00 | 0.00 | 40 | 1014.9 |
| 20260507233059 | 59 | 288 | 3.0 | 7.0 | 0.00 | 0.00 | 0.00 | 40 | 1014.8 |
| 20260507231547 | 60 | 360 | 2.0 | 6.0 | 0.00 | 0.00 | 0.00 | 40 | 1014.8 |
| 20260507230045 | 60 | 360 | 1.0 | 5.0 | 0.00 | 0.00 | 0.00 | 38 | 1014.8 |
| 20260507224556 | 60 | 279 | 3.0 | 7.0 | 0.00 | 0.00 | 0.00 | 38 | 1014.8 |
| 20260507223048 | 61 | 1 | 3.0 | 5.0 | 0.00 | 0.00 | 0.00 | 44 | 1014.7 |
| 20260507221551 | 61 | 359 | 1.0 | 10.0 | 0.00 | 0.00 | 0.00 | 39 | 1014.8 |
| 20260507220051 | 61 | 359 | 3.0 | 7.0 | 0.00 | 0.00 | 0.00 | 38 | 1014.8 |
| 20260507214606 | 61 | 12 | 1.0 | 9.0 | 0.00 | 0.00 | 0.00 | 38 | 1014.8 |
| 20260507213100 | 60 | 331 | 6.0 | 9.0 | 0.00 | 0.00 | 0.00 | 38 | 1014.8 |
| 20260507211549 | 61 | 19 | 3.0 | 8.0 | 0.00 | 0.00 | 0.00 | 38 | 1014.7 |
| 20260507210054 | 61 | 11 | 5.0 | 9.0 | 0.00 | 0.00 | 0.00 | 44 | 1014.6 |